ARIANE 1 DEB, 40781

Orbit data source: Space-Track

ARIANE 1 DEB, 40781 is space debris in HEO originally from a launch on Mon, 24 Dec 1979 UTC launched from the French Guiana (FRGUI). Debris objects in space refer to the collection of defunct objects orbiting the Earth. Examples of debris include non-operational satellites, rocket bodies, and fragments generated from explosions, collisions, or faulty payload assembly.

Loading next visibility...
Identifier
40781, 1979-104AJ
Orbit
HEO
Country
Flag of FRFR
Related business
Manufacturer
Unknown
Mission
Spacecraft
Bus & Motor
Unknown
Mass
Unknown
Launch date (UTC)
1979-12-24 (46 years ago)
Launch vehicle
Unknown
Launch site
French Guiana (FRGUI)
Object type
Payload
Rocket body
Debris
Shape & HBR
Unknown shape, 0.2 m
Radar Cross Section
Medium (>0.1 m² and <1 m²)

Expand to show TLE details & history
Last TLE update: 1 week ago

TLE from 1 week ago
0 ARIANE 1 DEB
1 40781U 79104AJ  26166.85317160  .00000774  00000-0  35577-2 0  9990
2 40781  19.1209  16.6881 6488242 121.3279 317.6076  3.16721476 23397
Epoch: 2026-06-15T20:28Z
TLE epoch observation values (Epoch: 2026-06-15T20:28:34.026Z)
Latitude
-0.00001°
Longitude
165.41076°
Altitude
10,714.124 km
Speed
5.127 km/s
True Right ascension
01h 06m 44s
True Declination
0° 00' 00"
Sunlit
Object was in daylight at epoch
Visualization orbit readout
Latitude
Unknown
Longitude
Unknown
Altitude
Unknown
Speed
Unknown
Apparent Right ascension
Unknown
Apparent Declination
Unknown
Sunlit
N/A
Visualization observer readout
Local Sidereal Time
00:50:57
Azimuth
Unknown
Elevation
Unknown
Doppler factor
Unknown
Orbital elements
Apogee altitude
25,923.143 km
Perigee altitude
501.57 km
Semi-major axis
19,590.494 km
Eccentricity
0.64882
Inclination
19.1209°
RAAN
16.6881°
Arg. of periapsis
121.3279°
True anomaly
238.59934°
Mean anomaly
317.6076°
Eccentric anomaly
281.13218°
Mean motion
0.79154 °/min
Orbital period
454.81 mins
BSTAR
0.0035577
Loading maneuver chart data...
Computing Atmospheric mass density...
Loading historical data...
Loading historical data...
Loading historical data...
Loading historical data...
Loading historical data...
Loading historical data...
Loading historical data...

Documentation

Showing up to 5 results
|